Location: Mountain Grove
(34.0887°N, 86.6172°W)
Time: 22:08:01
(UTC+00:00)

GEOS 3 Rocket - Pass Details

Date: 14 July 2020
Orbit: 771 x 848 km, 115.0° (Epoch: 08 August)

Event Time Altitude Azimuth Distance (km) Brightness Sun altitude
Rises 03:48:00 0° 27° (NNE) 3,412 7.2 -26.9°
Reaches altitude 10° 03:50:22 10° 23° (NNE) 2,475 6.5 -27.2°
Maximum altitude 03:55:38 56° 307° (NW) 1,002 4.3 -27.8°
Enters shadow 03:58:53 23° 238° (WSW) 1,715 5.2 -28.1°
